{"data":{"norad_id":68962,"epoch":"2026-05-25T04:00:03.998880Z","epoch_age_seconds":70769,"freshness":"FRESH","line1":"1 68962U 26099M   26145.16671295 -.01888056  00000+0 -19623-1 0  9991","line2":"2 68962  53.1591 270.0096 0000751  78.0073 245.1215 15.67003550  5017","mean_motion":15.6700355,"eccentricity":7.51e-5,"inclination_deg":53.1591,"raan_deg":270.0096,"arg_perigee_deg":78.0073,"mean_anomaly_deg":245.1215,"bstar":-0.019623,"rev_number":501,"period_min":91.895133230553,"perigee_km":366.9761232267,"apogee_km":367.98931530854,"semimajor_km":6745.6197192676,"source":"CELESTRAK","updated_at":"2026-05-25T13:38:22.074072Z"}}